User: anonymous   Login
Location: Unspecified
(0.0000°N, 0.0000°E)
Time: 21:14:29
(UTC+01:00)
Language:

Vanguard 2 Rocket - Orbit

View from above orbital plane
View from above orbital plane
View from above satellite
View from above satellite

Ground track
Ground track

The orbit data is extracted from the following two-line orbital elements,

1    12U 59001B   18021.87215298 +.00000154 +00000-0 +88113-4 0  9997
2    12 032.8948 181.1511 1664902 142.4571 230.4813 11.44163025179431
Epoch (UTC): 21 January 2018 20:55:54
Eccentricity: 0.1664902
inclination: 32.8948°
perigee height: 556 km
apogee height: 3326 km
right ascension of ascending node: 181.1511°
argument of perigee: 142.4571°
revolutions per day: 11.44163025
mean anomaly at epoch: 230.4813°
orbit number at epoch: 17943

The dashed part of the orbit path shows where the satellite is in the earth's shadow,  

DLR